Location: Le Castellard
(44.1862°N, 6.1301°E)
Time: 13:51:25
(UTC+00:00)

ATLAS 3B R/B - Pass Details

Date: 18 January 2020
Orbit: 1027 x 1168 km, 63.8° (Epoch: 09 February)

Event Time Altitude Azimuth Distance (km) Brightness Sun altitude
Exits shadow 05:38:08 - 331° (NNW) 3,013 4.7 -15.5°
Reaches altitude 10° 05:38:35 10° 332° (NNW) 2,862 4.6 -15.5°
Maximum altitude 05:44:57 41° 42° (NE) 1,492 3.7 -14.3°
Drops below altitude 10° 05:51:27 10° 112° (ESE) 2,936 6.5 -13.2°
Sets 05:54:20 0° 119° (ESE) 3,912 7.4 -12.7°
